• In Deutschland
  • Länderverzeichnis
  • Für 7 Tage
  • Wassertemperatur
  • Satellitenkarten
  • Wetterkarte
  • Widgets
  • user-avatar
    Anmelden

    Stündliche Wetter Shkoder

    Heute, 18 November, Samstag

    Zeit Temperatur Niederschläge Wind Luftdruck Luftfeuchtigkeit
    00:00 +9°C° 0,2 mm 3 m/S 738 mmHg 84%
    01:00 +9°C° 0,2 mm 3 m/S 738 mmHg 84%
    02:00 +9°C° 0,1 mm 3 m/S 738 mmHg 85%
    03:00 +9°C° 0,1 mm 3 m/S 738 mmHg 85%
    04:00 +9°C° 0,1 mm 3 m/S 737 mmHg 85%
    05:00 +9°C° 0 mm 3 m/S 737 mmHg 85%
    06:00 +8°C° 0 mm 3 m/S 737 mmHg 85%
    07:00 +8°C° 0 mm 3 m/S 737 mmHg 85%
    08:00 +10°C° 0 mm 3 m/S 737 mmHg 81%
    09:00 +11°C° 0 mm 3 m/S 738 mmHg 76%
    10:00 +12°C° 0 mm 3 m/S 738 mmHg 72%
    11:00 +14°C° 0 mm 2 m/S 737 mmHg 70%
    12:00 +14°C° 0 mm 2 m/S 737 mmHg 68%
    13:00 +15°C° 0 mm 2 m/S 737 mmHg 66%
    14:00 +14°C° 0,1 mm 2 m/S 737 mmHg 69%
    15:00 +14°C° 0,1 mm 2 m/S 737 mmHg 73%
    16:00 +13°C° 0,1 mm 2 m/S 737 mmHg 76%
    17:00 +12°C° 0,1 mm 2 m/S 737 mmHg 78%
    18:00 +10°C° 0,1 mm 2 m/S 737 mmHg 80%
    19:00 +10°C° 0,1 mm 2 m/S 737 mmHg 82%
    20:00 +9°C° 0 mm 2 m/S 737 mmHg 83%
    21:00 +9°C° 0 mm 2 m/S 738 mmHg 83%
    22:00 +9°C° 0 mm 2 m/S 738 mmHg 84%
    23:00 +9°C° 0,1 mm 2 m/S 738 mmHg 84%

    Morgen, 19 November, Sonntag

    Zeit Temperatur Niederschläge Wind Luftdruck Luftfeuchtigkeit
    00:00 +8°C° 0,1 mm 2 m/S 738 mmHg 84%
    01:00 +8°C° 0,1 mm 2 m/S 738 mmHg 84%
    02:00 +8°C° 0,1 mm 2 m/S 737 mmHg 85%
    03:00 +8°C° 0,1 mm 2 m/S 737 mmHg 85%
    04:00 +8°C° 0,1 mm 2 m/S 737 mmHg 85%
    05:00 +8°C° 0,1 mm 2 m/S 737 mmHg 85%
    06:00 +8°C° 0,1 mm 2 m/S 737 mmHg 85%
    07:00 +8°C° 0,1 mm 2 m/S 737 mmHg 84%
    08:00 +9°C° 0,1 mm 2 m/S 738 mmHg 80%
    09:00 +10°C° 0,1 mm 2 m/S 738 mmHg 76%
    10:00 +12°C° 0,1 mm 2 m/S 738 mmHg 71%
    11:00 +12°C° 0 mm 2 m/S 737 mmHg 69%
    12:00 +13°C° 0 mm 1 m/S 737 mmHg 67%
    13:00 +13°C° 0 mm 1 m/S 737 mmHg 65%
    14:00 +13°C° 0 mm 1 m/S 737 mmHg 68%
    15:00 +12°C° 0 mm 1 m/S 736 mmHg 72%
    16:00 +11°C° 0 mm 1 m/S 736 mmHg 75%
    17:00 +11°C° 0,1 mm 1 m/S 736 mmHg 77%
    18:00 +11°C° 0,1 mm 1 m/S 737 mmHg 80%
    19:00 +10°C° 0,1 mm 1 m/S 737 mmHg 82%
    20:00 +10°C° 0,3 mm 1 m/S 737 mmHg 84%
    21:00 +9°C° 0,3 mm 2 m/S 737 mmHg 86%
    22:00 +8°C° 0,3 mm 2 m/S 738 mmHg 89%
    23:00 +8°C° 0,6 mm 2 m/S 738 mmHg 89%

    übermorgen, 20 November, Montag

    Zeit Temperatur Niederschläge Wind Luftdruck Luftfeuchtigkeit
    00:00 +7°C° 0,6 mm 3 m/S 738 mmHg 90%
    01:00 +7°C° 0,6 mm 3 m/S 739 mmHg 91%
    02:00 +5°C° 0,4 mm 3 m/S 739 mmHg 88%
    03:00 +5°C° 0,4 mm 3 m/S 739 mmHg 86%
    04:00 +4°C° 0,4 mm 4 m/S 739 mmHg 84%
    05:00 +4°C° 0 mm 4 m/S 740 mmHg 83%
    06:00 +3°C° 0 mm 3 m/S 740 mmHg 82%
    07:00 +3°C° 0 mm 3 m/S 741 mmHg 81%
    08:00 +4°C° 0 mm 3 m/S 741 mmHg 74%
    09:00 +5°C° 0 mm 3 m/S 742 mmHg 68%
    10:00 +7°C° 0 mm 3 m/S 742 mmHg 61%
    11:00 +8°C° 0 mm 3 m/S 742 mmHg 58%
    12:00 +8°C° 0 mm 3 m/S 742 mmHg 55%
    13:00 +9°C° 0 mm 3 m/S 742 mmHg 52%
    14:00 +8°C° 0 mm 2 m/S 742 mmHg 55%
    15:00 +7°C° 0 mm 2 m/S 743 mmHg 59%
    16:00 +6°C° 0 mm 2 m/S 743 mmHg 63%
    17:00 +5°C° 0 mm 2 m/S 743 mmHg 64%
    18:00 +5°C° 0 mm 2 m/S 744 mmHg 64%
    19:00 +4°C° 0 mm 2 m/S 744 mmHg 65%
    20:00 +4°C° 0 mm 2 m/S 744 mmHg 64%
    21:00 +4°C° 0 mm 2 m/S 745 mmHg 64%
    22:00 +4°C° 0 mm 2 m/S 745 mmHg 63%
    23:00 +4°C° 0 mm 2 m/S 745 mmHg 61%

    21 November, Dienstag

    Zeit Temperatur Niederschläge Wind Luftdruck Luftfeuchtigkeit
    00:00 +4°C° 0 mm 2 m/S 745 mmHg 60%
    01:00 +4°C° 0 mm 2 m/S 744 mmHg 59%
    02:00 +4°C° 0 mm 2 m/S 744 mmHg 59%
    03:00 +4°C° 0 mm 2 m/S 744 mmHg 58%
    04:00 +4°C° 0 mm 2 m/S 744 mmHg 58%
    05:00 +5°C° 0 mm 1 m/S 744 mmHg 58%
    06:00 +5°C° 0 mm 1 m/S 744 mmHg 58%
    07:00 +5°C° 0 mm 1 m/S 744 mmHg 58%
    08:00 +7°C° 0 mm 1 m/S 744 mmHg 56%
    09:00 +9°C° 0 mm 1 m/S 744 mmHg 54%
    10:00 +10°C° 0 mm 1 m/S 744 mmHg 52%
    11:00 +11°C° 0 mm 1 m/S 743 mmHg 53%
    12:00 +10°C° 0 mm 2 m/S 743 mmHg 54%
    13:00 +10°C° 0 mm 2 m/S 743 mmHg 55%
    14:00 +9°C° 0 mm 2 m/S 743 mmHg 60%
    15:00 +9°C° 0 mm 1 m/S 743 mmHg 65%
    16:00 +8°C° 0 mm 1 m/S 743 mmHg 69%
    17:00 +8°C° 0 mm 1 m/S 743 mmHg 71%
    18:00 +7°C° 0 mm 1 m/S 743 mmHg 72%
    19:00 +7°C° 0 mm 1 m/S 744 mmHg 73%
    20:00 +7°C° 0 mm 1 m/S 744 mmHg 73%
    21:00 +7°C° 0 mm 1 m/S 744 mmHg 73%
    22:00 +6°C° 0 mm 2 m/S 744 mmHg 73%
    23:00 +6°C° 0 mm 2 m/S 744 mmHg 73%

    22 November, Mittwoch

    Zeit Temperatur Niederschläge Wind Luftdruck Luftfeuchtigkeit
    00:00 +7°C° 0 mm 1 m/S 744 mmHg 73%
    01:00 +7°C° 0 mm 1 m/S 744 mmHg 73%
    02:00 +7°C° 0 mm 1 m/S 744 mmHg 73%
    03:00 +6°C° 0 mm 2 m/S 744 mmHg 73%
    04:00 +6°C° 0 mm 2 m/S 744 mmHg 73%
    05:00 +7°C° 0 mm 1 m/S 744 mmHg 72%
    06:00 +7°C° 0 mm 1 m/S 744 mmHg 72%
    07:00 +7°C° 0 mm 1 m/S 744 mmHg 71%
    08:00 +9°C° 0 mm 1 m/S 744 mmHg 67%
    09:00 +11°C° 0 mm 1 m/S 744 mmHg 64%
    10:00 +12°C° 0 mm 0 m/S 744 mmHg 60%
    11:00 +13°C° 0 mm 1 m/S 744 mmHg 61%
    12:00 +14°C° 0 mm 1 m/S 744 mmHg 61%
    13:00 +14°C° 0 mm 1 m/S 743 mmHg 61%
    14:00 +13°C° 0 mm 1 m/S 743 mmHg 66%
    15:00 +12°C° 0 mm 1 m/S 743 mmHg 72%
    16:00 +11°C° 0 mm 1 m/S 743 mmHg 78%
    17:00 +10°C° 0 mm 1 m/S 744 mmHg 78%
    18:00 +10°C° 0 mm 1 m/S 744 mmHg 79%
    19:00 +9°C° 0 mm 1 m/S 744 mmHg 80%
    20:00 +9°C° 0 mm 1 m/S 745 mmHg 79%
    21:00 +9°C° 0 mm 1 m/S 745 mmHg 78%
    22:00 +9°C° 0 mm 1 m/S 745 mmHg 77%
    23:00 +9°C° 0 mm 1 m/S 745 mmHg 76%

    23 November, Donnerstag

    Zeit Temperatur Niederschläge Wind Luftdruck Luftfeuchtigkeit
    00:00 +9°C° 0 mm 1 m/S 745 mmHg 76%
    01:00 +9°C° 0 mm 1 m/S 745 mmHg 75%
    02:00 +8°C° 0 mm 1 m/S 745 mmHg 74%
    03:00 +8°C° 0 mm 1 m/S 745 mmHg 74%
    04:00 +8°C° 0 mm 1 m/S 745 mmHg 73%
    05:00 +8°C° 0 mm 1 m/S 745 mmHg 72%
    06:00 +8°C° 0 mm 1 m/S 746 mmHg 71%
    07:00 +7°C° 0 mm 2 m/S 746 mmHg 71%
    08:00 +10°C° 0 mm 1 m/S 746 mmHg 67%
    09:00 +12°C° 0 mm 1 m/S 746 mmHg 63%
    10:00 +14°C° 0 mm 1 m/S 746 mmHg 59%
    11:00 +14°C° 0 mm 1 m/S 746 mmHg 59%
    12:00 +15°C° 0 mm 1 m/S 745 mmHg 58%
    13:00 +15°C° 0 mm 1 m/S 745 mmHg 58%
    14:00 +14°C° 0 mm 1 m/S 745 mmHg 64%
    15:00 +13°C° 0 mm 1 m/S 745 mmHg 69%
    16:00 +12°C° 0 mm 1 m/S 745 mmHg 74%
    17:00 +11°C° 0 mm 1 m/S 746 mmHg 75%
    18:00 +10°C° 0 mm 1 m/S 746 mmHg 75%
    19:00 +10°C° 0 mm 1 m/S 746 mmHg 76%
    20:00 +10°C° 0 mm 1 m/S 746 mmHg 75%
    21:00 +10°C° 0 mm 1 m/S 747 mmHg 74%
    22:00 +9°C° 0 mm 1 m/S 747 mmHg 73%
    23:00 +9°C° 0 mm 1 m/S 747 mmHg 72%
    Mehr zeigen